Starlink 5675

operational
NORAD ID: 55340 Int'l Des: 2023-013 Owner: SPXS Country: US Constellation: starlink
LEOCIRCULAR

关于 Starlink 5675

正在加载描述...

实时位置

正在加载3D地球...

即将过境

高度历史

Altitude vs Time

uPlot chart will show altitude changes over time

两行轨道根数

1 55340U 23013K 25350.82245513 -.00000996 00000-0 -58634-4 0 9997
2 55340 43.0049 30.6483 0001374 269.0082 91.0603 15.02543682159241
Epoch: Dec 16, 2025 • Age: 15 hours

当前状态

高度 562.8 km
速度 7.59 km/s
星下点 41.52°N, 144.75°W
发射日期 Jan 26, 2023
运行时间 2.8 years
类型 internet

技术详情

分类 Payload
质量 305.00 kg
干质量 290.00 kg
总质量 305.00 kg
长度 0.20 m
直径 2.80 m
跨度 9.00 m
形状 Box + pan
制造商 SPXS
平台类型 Starlink
阶段状态 In Orbit
所有者/国家 SPXS/US

大型星座

Loading constellations...